Location: *
(48.8667°N, 2.3331°E)
Time: 01:40:36
(UTC+00:00)

Cosmos 921 Rocket - Pass Details

Date: 09 April 2020
Orbit: 572 x 632 km, 75.8° (Epoch: 03 June)

Event Time Altitude Azimuth Distance (km) Brightness Sun altitude
Rises 18:58:42 0° 345° (NNW) 2,792 6.9 -4.7°
Reaches altitude 10° 19:01:03 10° 355° (N) 1,889 5.9 -5.1°
Maximum altitude 19:04:56 36° 63° (ENE) 923 3.6 -5.7°
Drops below altitude 10° 19:08:48 10° 130° (SE) 1,886 5.0 -6.3°
Enters shadow 19:09:47 - 135° (SE) 2,255 5.4 -6.4°
